Location: Newark
(54.2500°N, 9.1833°E)
Time: 06:21:07
(UTC+00:00)

Altair - Visible Passes

Search period start: 13 December 2019 00:00
Search period end: 23 December 2019 00:00
Orbit: 1502 x 1682 km, 47.2° (Epoch: 12 December)

Date Brightness Start Highest point End Pass type
(mag) Time Alt. Az. Time Alt. Az. Time Alt. Az.
13 Dec 9.0 17:43:05 10° SSE 17:46:44 14° SE 17:46:44 14° SE visible
13 Dec 8.9 19:41:30 10° SSW 19:44:47 22° SSW 19:44:47 22° SSW visible
14 Dec 9.0 17:18:52 10° SSE 17:22:28 13° SE 17:23:18 12° ESE visible
14 Dec 8.6 19:16:32 10° SSW 19:21:20 27° S 19:21:20 27° S visible
14 Dec 9.6 21:19:11 10° WSW 21:19:23 11° WSW 21:19:23 11° WSW visible
15 Dec 9.1 16:54:57 10° SE 16:57:30 11° SE 16:59:48 10° ESE visible
15 Dec 8.4 18:51:36 10° SSW 18:57:50 31° SSE 18:57:50 31° SSE visible
15 Dec 9.3 20:54:05 10° WSW 20:55:53 17° WSW 20:55:53 17° WSW visible
16 Dec 8.3 18:26:41 10° SSW 18:34:18 31° SSE 18:34:18 31° SSE visible
16 Dec 8.9 20:28:58 10° WSW 20:32:20 24° SW 20:32:20 24° SW visible
17 Dec 8.3 18:01:47 10° SSW 18:09:45 30° SE 18:10:44 29° SE visible
17 Dec 8.5 20:03:52 10° WSW 20:08:45 32° SW 20:08:45 32° SW visible
18 Dec 8.4 17:36:55 10° SSW 17:44:42 28° SE 17:47:07 25° ESE visible
18 Dec 8.2 19:38:46 10° SW 19:45:09 40° SSW 19:45:09 40° SSW visible
18 Dec 9.6 21:42:35 10° W 21:43:10 12° W 21:43:10 12° W visible
19 Dec 8.5 17:12:05 10° SSW 17:19:40 27° SE 17:23:28 21° ESE visible
19 Dec 7.9 19:13:41 10° SW 19:21:30 47° S 19:21:30 47° S visible
19 Dec 9.3 21:17:26 10° W 21:19:32 18° WSW 21:19:32 18° WSW visible
20 Dec 8.6 16:47:16 10° S 16:54:39 25° SE 16:59:48 16° E visible
20 Dec 7.8 18:48:36 10° SW 18:57:45 48° SSE 18:57:49 48° SSE visible
20 Dec 8.9 20:52:17 10° W 20:55:51 25° WSW 20:55:51 25° WSW visible
21 Dec 8.8 16:22:28 10° S 16:29:38 23° SE 16:36:05 11° E visible
21 Dec 7.8 18:23:33 10° SW 18:32:40 47° SSE 18:34:07 44° SE visible
21 Dec 8.5 20:27:08 10° WSW 20:32:09 34° WSW 20:32:09 34° WSW visible
22 Dec 8.9 15:57:44 10° S 16:04:37 22° SE 16:11:20 10° E visible
22 Dec 7.9 17:58:29 10° SW 18:07:34 45° SSE 18:10:23 37° ESE visible
22 Dec 8.2 20:01:59 10° WSW 20:08:25 43° SW 20:08:25 43° SW visible
22 Dec 9.7 22:06:16 10° W 22:06:26 11° W 22:06:26 11° W visible
